Tracking 25709 objects as of 24-May-2022
HD Live streaming from Space Station
objects crossing your sky now

NIMBUS 3


NIMBUS 3 is no longer on orbit


NORAD ID: 3890
Int'l Code: 1969-037A
Perigee: N/A
Apogee: N/A
Inclination: N/A
Period: N/A
Semi major axis: N/A
RCS: N/A
Launch date: April 14, 1969
Source: United States (US)
Launch site: AIR FORCE WESTERN TEST RANGE (AFWTR)
Decay date: 1972-01-22
aabbcc
Your satellite tracking list
Your tracking list is empty




NASA's NSSDC Master Catalog

Two Line Element Set (TLE):
1 03890U 69037A   22143.73390133 -.00000045  00000-0 -19114-5 0  9998
2 03890  99.8648  47.5544 0039440 350.5133  69.4285 13.42554018601447
Source of the keplerian elements: AFSPC